Flag for Monaco Weather past 2 weeks in Monaco, Monaco

Now
72 °F

Broken clouds.


Feels Like: 75 °F
Forecast: 66 / 76 °F
Wind: 8 mph from Northwest

Location: Nice Airport

Current Time: Sep 18, 2014 at 9:39:36 AM

Latest Report: Sep 18, 2014 at 9:00 AM


Visibility: N/A

Pressure: 29.92 "Hg

Humidity: 69%

Dew point: 61 °F

Location of MonacoLocation

Historic Weather in Monaco — Graph

°F

Monaco temperature yesterday

Maximum temperature yesterday: 77 °F (at 11:30 AM)
Minimum temperature yesterday: 68 °F (at 1:00 AM)
Average temperature yesterday: 72 °F

Past Weeks' High & Low Weather Summary

 TemperatureHumidityPressure
High81 °F (Sep 4, 2:30 PM)89% (Sep 7, 10:30 PM)30.04 "Hg (Sep 7, 10:30 PM)
Low64 °F (Sep 13, 6:30 AM)36% (Sep 3, 10:00 AM)29.74 "Hg (Sep 12, 6:00 AM)
Average73 °F68%29.92 "Hg
* Reported Sep 3 8:00 AM — Sep 18 8:30 AM, Monaco, Weather by CustomWeather, © 2014

Note: Actual official high and low records may vary slightly from our data, if they occured in-between our weather recording intervals... More about our weather records

Advertising

Monaco weather history for previous 24 hours

 ConditionsComfort  
Time TempWeatherWind HumidityBarometerVisibility
8:30 AM
Sep 18
70 °FPartly sunny.7 mph73%29.92 "HgN/A
8:00 AM70 °FPartly cloudy.8 mph73%29.92 "HgN/A
7:30 AM68 °FPassing clouds.8 mph78%29.92 "HgN/A
7:00 AM70 °FPartly cloudy.5 mph69%29.89 "HgN/A
6:30 AM70 °FPartly cloudy.7 mph73%29.89 "HgN/A
6:00 AM72 °FPartly cloudy.12 mph65%29.89 "HgN/A
5:30 AM70 °FPassing clouds.7 mph73%29.89 "HgN/A
5:00 AM72 °FPassing clouds.8 mph69%29.89 "HgN/A
4:30 AM70 °FPassing clouds.8 mph73%29.89 "HgN/A
4:00 AM70 °FPassing clouds.9 mph73%29.89 "HgN/A
3:30 AM70 °FLight rain. Passing clouds.9 mph78%29.89 "HgN/A
3:00 AM70 °FPassing clouds.6 mph73%29.89 "HgN/A
2:30 AM70 °FPassing clouds.7 mph73%29.89 "HgN/A
2:00 AM70 °FPassing clouds.9 mph78%29.92 "HgN/A
1:30 AM70 °FPartly cloudy.9 mph78%29.92 "HgN/A
1:00 AM70 °FPassing clouds.8 mph78%29.92 "HgN/A
12:30 AM70 °FPassing clouds.8 mph78%29.95 "HgN/A
12:00 AM70 °FPassing clouds.9 mph78%29.95 "HgN/A
11:30 PM
Sep 17
70 °FPassing clouds.9 mph78%29.95 "HgN/A
11:00 PM70 °FPassing clouds.7 mph78%29.92 "HgN/A
10:30 PM72 °FPassing clouds.9 mph73%29.95 "HgN/A
10:00 PM73 °FPassing clouds.6 mph74%29.95 "HgN/A
9:30 PM73 °FPassing clouds.7 mph74%29.92 "HgN/A
9:00 PM73 °FPassing clouds.13 mph78%29.92 "HgN/A
8:30 PM73 °FLight rain. Partly sunny.13 mph74%29.92 "HgN/A
8:00 PM73 °FLight rain. Partly sunny.13 mph69%29.92 "HgN/A
7:30 PM73 °FPartly sunny.13 mph69%29.92 "HgN/A
7:00 PM73 °FPartly sunny.14 mph69%29.92 "HgN/A
6:30 PM75 °FPartly sunny.16 mph69%29.92 "HgN/A
6:00 PM75 °FBroken clouds.14 mph69%29.92 "HgN/A
5:30 PM75 °FBroken clouds.16 mph69%29.92 "HgN/A
5:00 PM77 °FPartly sunny.15 mph65%29.92 "HgN/A
4:30 PM77 °FBroken clouds.15 mph65%29.92 "HgN/A
4:00 PM77 °FScattered clouds.16 mph65%29.92 "HgN/A
3:30 PM75 °FPartly sunny.17 mph69%29.92 "HgN/A
3:00 PM75 °FPartly sunny.18 mph69%29.95 "HgN/A
2:30 PM75 °FPartly sunny.20 mph69%29.92 "HgN/A
2:00 PM75 °FPartly sunny.23 mph69%29.95 "HgN/A
1:30 PM75 °FPartly sunny.20 mph69%29.92 "HgN/A
1:00 PM75 °FPartly sunny.20 mph65%29.92 "HgN/A
12:30 PM77 °FPartly sunny.18 mph61%29.92 "HgN/A
12:00 PM77 °FPartly sunny.17 mph65%29.95 "HgN/A
11:30 AM77 °FPartly sunny.10 mph57%29.95 "HgN/A
11:00 AM75 °FScattered clouds.10 mph61%29.95 "HgN/A
10:30 AM73 °FBroken clouds.5 mph57%29.95 "HgN/A
10:00 AM72 °FBroken clouds.9 mph61%29.98 "HgN/A
9:30 AM72 °FBroken clouds.7 mph61%29.95 "HgN/A
9:00 AM70 °FPartly sunny.8 mph64%29.95 "HgN/A
Weather by CustomWeather, © 2014

See weather overviewHow to use our weather pages